Regional Weather Roundup
Issued by NWS Grand Forks, ND

Home | Current Version | Previous Version | Text Only | Print | Product List | Glossary On
Versions: 1 2 3 4 5 6 7 8 9 10 11 12 13 14 15 16 17 18 19 20 21 22 23 24 25 26 27 28 29 30 31 32 33 34 35 36 37 38 39 40 41 42 43 44 45 46 47 48 49 50
000
ASUS43 KFGF 231010
RWRFGF
PRAIRIE TO PINES  WEATHER ROUNDUP
NATIONAL WEATHER SERVICE EASTERN NORTH DAKOTA/GRAND FORKS ND
500 AM CDT TUE SEP 23 2014

 **SATELLITE DATA USED TO AUGMENT SKY COVER AT AUTOMATED STATIONS**
 *****  WEATHER ACROSS EASTERN NORTH DAKOTA  *****

CITY           SKY/WX    TMP DP  RH WIND       PRES   REMARKS
GRAND FORKS    CLEAR     51  48  89 S8        30.01S
GRAND FRKS AFB CLEAR     51  50  98 SE7       30.01S
GRAND FRKS NWS   N/A     52 N/A N/A SE10        N/A
DEVILS LAKE    CLEAR     55  46  71 SE7       29.96S
FARGO          CLEAR     57  48  72 SE10      30.04R
WAHPETON ARPT  SUNNY     52  45  76 SE9       30.06S
$$

 ***** WEATHER ACROSS CENTRAL AND WESTERN NORTH DAKOTA  *****

CITY           SKY/WX    TMP DP  RH WIND       PRES   REMARKS
BISMARCK       CLEAR     56  53  90 S8        29.91S
MINOT          CLEAR     53  48  83 SE8       29.89S
JAMESTOWN      CLEAR     57  50  77 S9        29.97S
MINOT AFB      CLEAR     51  51  99 SE3       29.89R
GARRISON         N/A     55  52  89 SE8       29.89F
WILLISTON      CLEAR     50  47  89 N5        29.85S
DICKINSON      CLEAR     50  47  89 E7        29.85F
HETTINGER      PTCLDY    52  49  89 SE5       29.89S
$$

 *****  OTHER AIRPORT OBSERVATIONS IN OUR AREA  *****

CITY           SKY/WX    TMP DP  RH WIND       PRES   REMARKS
WALHALLA       FAIR      50  50 100 SE3       29.98S
GRAFTON AIRPOR FAIR      48  46  93 SE7       30.01S
VALLEY CITY AR FAIR      54  54 100 S7        30.01S
CANDO          FAIR      50  48  93 SE9       29.96S
CAVALIER APRT  FAIR      48  46  93 S6        30.00R
GWINNER        MOSUNNY   57  54  88 S7        30.03S
SHEYENNE NWR     N/A     52  49  89 SE5       29.95
ROLLA          FAIR      48  46  93 S6        29.97S
 ***** THE ABOVE OBSERVATIONS ARE NON NWS ARE NOT QUALITY
       CONTROLLED AND MAY MIS-REPORT RAIN FOR SNOW...
$$

  *****  WEATHER ACROSS NORTHERN MINNESOTA  *****

CITY           SKY/WX    TMP DP  RH WIND       PRES   REMARKS
FLAG ISLAND    CLEAR     57  54  88 S7        30.06R
WARROAD        CLEAR     52  46  82 S3        30.07S
ROSEAU         CLEAR     50  45  81 S6        30.06R
HALLOCK        CLEAR     52  48  87 SE8       30.01S
THF RVR FALLS  CLEAR     52  46  82 SE9       30.05S
BAUDETTE       CLEAR     48  46  93 CALM      30.08S
WASKISH        CLEAR     52  48  87 CALM      30.10S
CROOKSTON      CLEAR     52  48  87 SE8       30.04S
STEPHEN NDAWN    N/A     54  48  82 SE8         N/A
GREENBUSH NDAW   N/A     52  48  87 SE6         N/A
$$
  *****  WEATHER ACROSS CENTRAL AND WEST MINNESOTA  *****

CITY           SKY/WX    TMP DP  RH WIND       PRES   REMARKS
FOSSTON        CLEAR     52  46  82 SE5       30.08S
BEMIDJI        CLEAR     44  44 100 E5        30.11S
PARK RAPIDS    CLEAR     48  46  93 SE6       30.12R
ELBOW LAKE     FAIR      53  48  83 SE9       30.09S
WADENA         CLEAR     45  45 100 SE3       30.12R
DETROIT LAKES  CLEAR     52  50  93 SE8       30.10R
MOORHEAD       CLEAR     57  52  82 S9        30.06R
FERGUS FALLS   CLEAR     55  46  71 SE10      30.08F
MORRIS MN      CLEAR     50  48  93 SE8       30.09S
STAPLES        CLEAR     45  45 100 SE3       30.13S
$$
  *****  WEATHER ELSEWHERE ACROSS MINNESOTA  *****

CITY           SKY/WX    TMP DP  RH WIND       PRES   REMARKS
DULUTH         CLEAR     54  47  77 SW5       30.17S
INTRNTL FALLS  CLEAR     38  38 100 SE3       30.12R
ELY            CLEAR     43  43 100 CALM      30.16S
CLOQUET        NOT AVBL
WHEATON        CLEAR     50  46  87 SE10      30.09R
BRAINERD       CLEAR     45  44  97 CALM      30.16R
HIBBING        CLOUDY    38  37  97 CALM      30.17R FOG
ALEXANDRIA     CLEAR     51  47  86 SE9       30.13S
SAINT CLOUD    CLEAR     47  45  93 SE3       30.17R FOG
MINNEAPOLIS    CLEAR     53  49  86 CALM      30.19R
$$

  *****  WEATHER ACROSS SOUTH DAKOTA  *****

CITY           SKY/WX    TMP DP  RH WIND       PRES   REMARKS
SIOUX FALLS    CLOUDY    60  50  69 S8        30.11S
BROOKINGS      NOT AVBL
WATERTOWN      MOCLDY    54  48  80 SE13      30.07R
HURON          CLOUDY    62  52  69 S8        30.03S
SISSETON         N/A     50  49  96 S8        30.06R
ABERDEEN       CLEAR     59  51  75 S10       30.00F
MITCHELL       CLOUDY    61  54  77 S8        30.06S
PIERRE         CLOUDY    61  54  77 SE21      29.94F
MOBRIDGE       CLOUDY    63  55  75 S14       29.91S
RAPID CITY     CLOUDY    57  55  93 CALM      29.91R
$$

  *****  SOME WEATHER IN NEARBY STATES *****

CITY           SKY/WX    TMP DP  RH WIND       PRES   REMARKS
GLASGOW MT     CLEAR     53  46  77 E12       29.82F
GREAT FALLS MT CLEAR     60  48  64 SW13      29.95S
CHEYENNE WY    MOCLDY    57  44  62 W15       30.15S
SCOTTSBLUFF NE CLEAR     50  49  96 NE5       30.00S
OMAHA NE       CLOUDY    62  52  69 S12       30.17R
DES MOINES IA  CLEAR     55  50  83 S7        30.23R
DAVENPORT IA   CLEAR     47  42  83 CALM      30.28R
CHICAGO IL     CLEAR     52  43  71 W5        30.29R
EAU CLAIRE WI  FOG       44  43  96 CALM      30.21S VSB 1/4
LA CROSSE WI   FOG       51  50  96 SE6       30.24R VSB 1/2
$$

  *****  SOME NATIONAL WEATHER *****

CITY           SKY/WX    TMP DP  RH WIND       PRES   REMARKS
LA GUARDIA NY  PTCLDY    54  40  59 NW9       30.24R
RALEIGH NC     CLOUDY    59  48  67 NE9       30.22R
ATLANTA GA     CLEAR     62  56  80 NE8       30.14R
NEW ORLEANS LA CLEAR     72  56  57 NE14      30.05S
OKLAHOMA CITY  MOCLDY    57  50  77 S3        30.18R
ALBUQUERQUE NM PTCLDY    61  56  83 SE7       30.25F
SALT LAKE CITY PTCLDY    62  53  72 SE6       30.11S
LOS ANGELES CA PTCLDY    65  61  86 CALM      29.95S
BOISE ID       MOCLDY    65  53  65 SE10      29.99F
SEATTLE WA     CLOUDY    62  57  83 E5        29.88F
$$

*** WEATHER ACROSS MANITOBA...SASKATCHEWAN AND ONTARIO ***
                ***ONTARIO***

CITY           SKY/WX    TMP DP  RH WIND       PRES   REMARKS
GERALDTON      FOG       48  48 100 CALM      30.13R VSB 3/4
THUNDER BAY    CLEAR     50  48  93 W6        30.12R
SIOUX LOOKOUT  CLEAR     48  48 100 S5        30.10R
TORONTO        PTCLDY    48  43  81 W8        30.24R
BIG TROUT LK   LGT RAIN  45  43  93 SE8       30.10F FOG
PICKLE LAKE    NOT AVBL
DRYDEN         CLEAR     52  50  93 S8        30.11R
KENORA         CLEAR     54  50  87 S6        30.08R
$$
                *** MANITOBA***

CITY           SKY/WX    TMP DP  RH WIND       PRES   REMARKS
BRANDON        CLEAR     46  45  93 E7        29.93S
DAUPHIN        CLEAR     63  48  59 SW9       29.87S
ISLAND LAKE    CLEAR     52  50  93 S6        29.96S
PILOT MOUND      N/A     48  45  87 SE8         N/A
THE PAS        CLEAR     52  48  87 SE12      29.75F
THOMPSON       PTCLDY    46  46 100 E5        29.81F
WINNIPEG       CLEAR     54  48  82 S13       29.99S
LYNN LAKE      CLEAR     46  46 100 SE7       29.69F
CHURCHILL      CLOUDY    39  37  93 S18       29.88F
GILLAM         CLOUDY    45  45 100 SE8       29.92F
$$
                ***SASKATCHEWAN***

CITY           SKY/WX    TMP DP  RH WIND       PRES   REMARKS
ESTEVAN        CLEAR     48  41  76 E6        29.86F
KINDERSLEY     PTCLDY    48  46  93 S5        29.77R
LLOYDMINSTER   CLEAR     54  43  66 SW9       29.73S
PRINCE ALBERT  CLEAR     45  45 100 CALM      29.71S
REGINA         CLEAR     50  46  87 SE8       29.82F
YORKTON        CLEAR     52  48  87 S9        29.83F
N. BATTLEFORD  CLEAR     46  45  93 CALM      29.74S
LA RONGE       CLEAR     52  46  82 CALM      29.65F
SASKATOON      CLEAR     54  50  87 S8        29.74R
SWIFT CURRENT  CLEAR     55  48  76 SW14      29.80S
$$
NOTE: THESE ARE AUTOMATED STATIONS WITH LIMITED QUALITY CONTROL
      "FAIR" INDICATES FEW OR NO CLOUDS BELOW 12,000 FEET WITH NO
      SIGNIFICANT WEATHER AND/OR OBSTRUCTIONS TO VISIBILITY.
      SKY/WX - SKY CONDITION AND SIGNIFICANT WEATHER.
      TMP - AIR TEMPERATURE.    DP   - DEWPOINT TEMPERATURE.
      RH  - RELATIVE HUMIDITY.  PRES - PRESSURE.
      HX  - HEAT INDEX.         WCI  - WIND CHILL INDEX.
$



USA.gov is the U.S. government's official web portal to all federal, state and local government web resources and services.